Flag Weather past 2 weeks in Philadelphia, Pennsylvania, U.S.A.

Now
51 °F

Partly cloudy.


Feels Like: 48 °F
Forecast: 46 / 57 °F
Wind: 8 mph from Southwest

Location: Philadelphia International Airport

Current Time: Nov 25, 2014 at 6:33:02 PM

Latest Report: Nov 25, 2014 at 5:54 PM


Visibility: 10 mi

Pressure: 30.08 "Hg

Humidity: 44%

Dew point: 30 °F

Location of PhiladelphiaLocation

Historic Weather in Philadelphia — Graph

°F

Philadelphia temperature yesterday

Maximum temperature yesterday: 72 °F (at 12:54 PM)
Minimum temperature yesterday: 57 °F (at 12:59 AM)
Average temperature yesterday: 65 °F

Past Weeks' High & Low Weather Summary

 TemperatureHumidityPressure
High72 °F (Nov 24, 12:54 PM)97% (Nov 12, 8:01 AM)30.55 "Hg (Nov 12, 8:01 AM)
Low21 °F (Nov 19, 5:54 AM)27% (Nov 18, 10:54 AM)29.54 "Hg (Nov 17, 3:54 PM)
Average44 °F57%30.09 "Hg
* Reported Nov 10 4:54 PM — Nov 25 4:54 PM, Philadelphia, Weather by CustomWeather, © 2014

Note: Actual official high and low records may vary slightly from our data, if they occured in-between our weather recording intervals... More about our weather records

Advertising

Philadelphia weather history for previous 24 hours

 ConditionsComfort  
Time TempWeatherWind HumidityBarometerVisibility
4:54 PM
Nov 25
52 °FMostly cloudy.7 mph45%30.06 "Hg10 mi
3:54 PM54 °FMore clouds than sun.9 mph38%30.04 "Hg10 mi
2:54 PM55 °FMore clouds than sun.10 mph35%30.03 "Hg10 mi
1:54 PM55 °FCloudy.12 mph35%30.02 "Hg10 mi
12:54 PM55 °FCloudy.13 mph35%30.04 "Hg10 mi
11:54 AM56 °FMostly cloudy.10 mph37%30.05 "Hg10 mi
10:54 AM55 °FCloudy.16 mph39%30.05 "Hg10 mi
9:54 AM56 °FOvercast.9 mph42%30.04 "Hg10 mi
8:54 AM56 °FMostly cloudy.13 mph46%30.01 "Hg10 mi
7:54 AM58 °FMostly cloudy.10 mph43%29.97 "Hg10 mi
6:54 AM59 °FMostly cloudy.12 mph42%29.94 "Hg10 mi
5:54 AM56 °FMostly cloudy.7 mph84%29.91 "Hg10 mi
4:54 AM57 °FMostly cloudy.8 mph90%29.89 "Hg10 mi
3:54 AM61 °FMostly cloudy.8 mph83%29.86 "Hg10 mi
2:54 AM62 °FMostly cloudy.8 mph75%29.82 "Hg10 mi
1:54 AM63 °FMostly cloudy.12 mph81%29.79 "Hg10 mi
12:54 AM62 °FMostly cloudy.9 mph80%29.77 "Hg10 mi
11:54 PM
Nov 24
68 °FMostly cloudy.17 mph68%29.76 "Hg10 mi
10:54 PM67 °FPassing clouds.17 mph73%29.76 "Hg10 mi
9:54 PM66 °FPassing clouds.15 mph75%29.73 "Hg10 mi
8:54 PM65 °FClear.16 mph73%29.73 "Hg10 mi
7:54 PM64 °FClear.13 mph70%29.71 "Hg10 mi
6:54 PM63 °FClear.9 mph73%29.70 "Hg10 mi
Weather by CustomWeather, © 2014

See weather overviewHow to use our weather pages